DW8397 Weather Reports


time (UTC)temp
F
wind
direction
speed
knots
gust
knots
rain 1hr
in
rain 24hr
in
rain mn
in
humidity
%
barometer
mb
20260509063027 32 218 0.0 0.0 0.00 0.00 0.00 90 1013.2
20260509061527 32 218 0.0 0.0 0.00 0.00 0.00 89 1013.3
20260509060030 32 218 0.0 0.0 0.00 0.00 0.00 88 1013.4
20260509054518 33 217 0.0 0.0 0.00 0.00 0.00 88 1013.5
20260509053016 33 218 0.0 0.0 0.00 0.00 0.00 87 1013.4
20260509051513 34 217 0.0 0.0 0.00 0.00 0.00 87 1013.3
20260509050033 34 217 0.0 0.0 0.00 0.00 0.00 87 1013.1
20260509044510 34 217 0.0 0.0 0.00 0.00 0.00 86 1013.0
20260509043009 35 217 0.0 0.0 0.00 0.00 0.00 85 1013.0
20260509041505 35 217 0.0 0.0 0.00 0.00 0.00 85 1012.8
20260509040003 36 217 0.0 0.0 0.00 0.00 0.00 84 1012.6
20260509034602 36 217 0.0 0.0 0.00 0.00 0.00 84 1012.7
20260509033004 36 217 0.0 0.0 0.00 0.00 0.00 83 1012.8
20260509031623 37 217 0.0 0.0 0.00 0.00 0.00 82 1012.7
20260509024557 38 217 0.0 0.0 0.00 0.00 0.00 80 1012.4
20260509023101 38 217 0.0 0.0 0.00 0.00 0.00 79 1012.2
20260509021555 39 217 0.0 0.0 0.00 0.00 0.00 77 1012.1
20260509020057 39 217 0.0 0.0 0.00 0.00 0.00 76 1012.0
20260509014555 40 217 0.0 0.0 0.00 0.00 0.00 76 1012.0
20260509013055 41 217 0.0 0.0 0.00 0.00 0.00 76 1011.7
20260509011550 41 217 0.0 0.0 0.00 0.00 0.00 73 1011.5
20260509010047 42 217 0.0 0.0 0.00 0.00 0.00 72 1011.2
20260509004550 43 217 0.0 0.0 0.00 0.00 0.00 70 1011.0
20260509003044 43 217 0.0 0.0 0.00 0.00 0.00 70 1010.8
20260509001543 44 217 0.0 0.0 0.00 0.00 0.00 67 1010.7
20260509000053 45 217 0.0 0.0 0.00 0.00 0.00 65 1010.5
20260508234540 45 218 0.0 0.0 0.00 0.00 0.00 65 1010.3
20260508233039 45 205 0.9 4.3 0.00 0.00 0.00 64 1010.3
20260508231539 46 249 0.0 8.7 0.00 0.00 0.00 64 1010.1
20260508230037 46 184 1.7 7.8 0.00 0.00 0.00 62 1010.1
20260508224535 46 234 0.9 9.6 0.00 0.00 0.00 62 1009.9
20260508223037 46 232 1.7 7.0 0.00 0.00 0.00 62 1010.0
20260508221537 46 184 0.0 9.6 0.00 0.00 0.00 63 1009.9
20260508220038 46 196 0.9 7.8 0.00 0.00 0.00 64 1009.8
20260508214534 46 269 5.2 13.0 0.00 0.00 0.00 64 1009.8
20260508213044 47 254 5.2 12.2 0.00 0.00 0.00 63 1009.5
20260508211534 47 229 1.7 7.8 0.00 0.00 0.00 65 1009.3
20260508210034 48 174 4.3 11.3 0.00 0.00 0.00 62 1009.3
20260508204532 48 208 7.0 16.5 0.00 0.00 0.00 57 1009.3
20260508203034 49 237 4.3 8.7 0.00 0.00 0.00 52 1009.1
20260508201529 49 265 3.5 11.3 0.00 0.00 0.00 50 1008.9
20260508200039 50 261 1.7 7.0 0.00 0.00 0.00 52 1008.9
20260508194529 51 324 5.2 12.2 0.00 0.00 0.00 45 1008.8
20260508193028 51 195 5.2 10.4 0.00 0.00 0.00 45 1008.5
20260508191531 50 311 5.2 12.2 0.00 0.00 0.00 45 1008.7
20260508190035 51 261 3.5 12.2 0.00 0.00 0.00 42 1008.7
20260508184526 52 202 7.0 14.8 0.00 0.00 0.00 44 1008.7
20260508183022 51 217 2.6 10.4 0.00 0.00 0.00 46 1008.9
20260508181541 49 240 1.7 10.4 0.00 0.00 0.00 49 1009.0
20260508180021 49 206 3.5 11.3 0.00 0.00 0.00 48 1009.0
20260508174523 48 236 5.2 12.2 0.00 0.00 0.00 45 1009.1
20260508173021 49 203 7.0 13.0 0.00 0.00 0.00 44 1009.1
20260508171520 50 296 1.7 12.2 0.00 0.00 0.00 46 1009.1
20260508170022 50 260 0.9 8.7 0.00 0.00 0.00 48 1009.0
20260508164533 49 223 3.5 6.1 0.00 0.00 0.00 49 1009.3
20260508163017 48 304 2.6 13.0 0.00 0.00 0.00 49 1009.5
20260508161517 48 209 2.6 13.0 0.00 0.00 0.00 48 1009.4
20260508160032 49 195 4.3 11.3 0.00 0.00 0.00 45 1009.4
20260508154517 49 272 5.2 11.3 0.00 0.00 0.00 45 1009.3
20260508153017 50 277 7.0 11.3 0.00 0.00 0.00 43 1009.3
20260508151513 50 347 6.1 10.4 0.00 0.00 0.00 44 1009.0
20260508150010 49 221 4.3 10.4 0.00 0.00 0.00 45 1008.8
20260508144506 47 256 6.1 15.6 0.00 0.00 0.00 49 1009.1
20260508143006 48 325 9.6 18.2 0.00 0.00 0.00 45 1009.3
20260508141504 47 309 5.2 13.9 0.00 0.00 0.00 44 1009.3
20260508140001 47 229 8.7 14.8 0.00 0.00 0.00 45 1009.4
20260508134558 46 323 7.0 11.3 0.00 0.00 0.00 47 1009.5
20260508133054 44 278 8.7 15.6 0.00 0.00 0.00 51 1009.7
20260508131558 43 330 6.1 13.0 0.00 0.00 0.00 51 1009.6
20260508130049 43 323 0.9 11.3 0.00 0.00 0.00 56 1009.5
20260508124545 43 275 1.7 7.8 0.00 0.00 0.00 60 1009.4
20260508123042 41 241 1.7 5.2 0.00 0.00 0.00 69 1009.6
20260508121537 40 180 0.0 5.2 0.00 0.00 0.00 73 1009.7
20260508120038 38 199 0.0 3.5 0.00 0.00 0.00 80 1009.7
20260508114529 36 240 0.0 2.6 0.00 0.00 0.00 85 1009.8
20260508113027 35 74 0.0 0.0 0.00 0.00 0.00 89 1009.6
20260508111525 34 74 0.0 0.0 0.00 0.00 0.00 89 1009.5
20260508110023 33 323 0.0 0.0 0.00 0.00 0.00 89 1009.2
20260508104521 33 323 0.0 0.0 0.00 0.00 0.00 89 1009.1
20260508103029 32 323 0.0 0.0 0.00 0.00 0.00 90 1009.0
20260508101528 32 323 0.0 0.0 0.00 0.00 0.00 90 1008.8
20260508100015 32 323 0.0 0.0 0.00 0.00 0.00 90 1008.5
20260508094512 31 323 0.0 0.0 0.00 0.00 0.00 89 1008.5
20260508093012 31 323 0.0 0.0 0.00 0.00 0.00 88 1008.4
20260508091512 31 323 0.0 5.2 0.00 0.00 0.00 88 1008.3
20260508090009 31 321 0.0 1.7 0.00 0.00 0.00 87 1008.2
20260508084508 31 323 0.0 3.5 0.00 0.00 0.00 86 1008.2
20260508083007 31 13 0.0 2.6 0.00 0.00 0.00 86 1008.1
20260508081505 31 13 0.9 1.7 0.00 0.00 0.00 85 1008.2
20260508080007 31 13 0.0 0.0 0.00 0.00 0.00 85 1008.1
20260508074505 31 12 0.0 0.0 0.00 0.00 0.00 84 1007.8
20260508073007 31 12 0.0 0.0 0.00 0.00 0.00 85 1007.7
20260508071503 31 12 0.0 0.0 0.00 0.00 0.00 85 1007.7
20260508070001 31 12 0.0 0.0 0.00 0.00 0.00 83 1007.8
20260508064615 31 12 0.0 0.0 0.00 0.00 0.00 83 1007.8